Theta_e
313 313 313 313 313 313 313 313 313 313 313 314 314 314 315 315 315 315 315 315 314 315 316 316 316 318 320 332 330 324 328 321 318 320 328 327 327 326 328 330 335 337 339 338 339 339 339
311 311 311 312 312 312 312 313 313 313 313 313 313 313 314 314 314 315 315 315 315 315 316 316 317 318 321 334 328 321 329 321 319 327 327 326 326 326 328 331 333 335 338 339 337 338 337
309 309 310 310 310 311 311 312 312 312 312 312 312 313 313 313 313 314 315 316 316 316 316 316 317 317 326 330 329 325 329 326 325 329 326 325 326 328 328 332 333 333 335 339 339 337 338
309 309 310 310 310 310 310 310 311 311 311 312 312 312 312 312 313 313 314 315 316 316 316 316 317 318 330 329 327 327 327 328 329 327 326 327 327 329 332 333 335 338 337 339 338 338 337
308 309 309 310 310 310 310 310 310 311 311 311 312 313 313 313 312 313 314 315 315 316 317 317 321 330 330 328 326 326 329 329 327 325 325 328 331 332 333 335 336 337 338 337 339 340 336
306 307 307 308 309 310 310 311 311 311 311 312 312 313 313 314 314 313 314 315 317 322 321 318 319 330 331 330 328 327 328 329 327 325 326 328 329 333 333 335 339 335 338 340 341 339 336
306 305 306 306 307 308 308 309 310 311 312 313 313 314 314 314 314 313 314 322 329 334 328 329 330 324 328 331 329 329 327 327 327 326 327 327 329 331 332 334 335 335 336 336 341 338 336
306 306 306 306 306 306 307 307 308 309 311 312 313 314 314 314 314 314 317 325 321 319 321 322 323 324 324 329 331 328 327 326 328 329 327 328 327 329 331 332 332 334 334 335 336 336 336
306 306 306 306 306 306 306 306 307 307 308 309 311 313 314 315 315 317 320 320 319 320 322 322 323 324 323 324 328 330 327 326 329 330 330 329 329 329 328 329 329 331 333 334 335 334 337
305 304 304 305 305 305 305 306 306 307 307 307 308 310 312 315 315 320 319 321 318 320 323 324 325 324 323 323 324 325 328 328 330 331 331 331 331 329 327 327 328 328 332 332 332 333 334
304 303 304 304 304 304 305 305 305 306 307 307 307 308 309 313 314 318 320 319 318 321 326 326 325 323 323 323 325 324 329 328 330 332 330 332 330 328 328 327 327 327 331 332 332 332 332
304 303 304 304 304 304 305 305 305 306 306 306 307 307 309 313 315 315 318 317 319 323 324 326 325 325 325 323 324 325 328 330 330 331 331 330 330 329 328 329 329 328 329 332 332 330 331
303 303 304 304 304 305 305 306 306 306 306 306 307 307 307 309 317 317 317 317 322 324 325 325 326 325 325 325 325 325 325 329 331 331 331 332 330 330 329 328 329 329 330 332 332 332 333
303 302 303 303 303 304 305 305 306 306 306 307 307 307 307 308 312 316 317 319 323 325 324 326 325 326 325 326 326 325 326 328 330 331 332 333 333 330 330 328 329 330 330 332 336 336 337
303 303 303 303 303 304 305 305 306 307 307 306 307 310 315 309 310 316 317 320 322 325 326 325 325 324 324 325 326 326 327 328 330 331 334 332 332 333 331 330 329 329 330 331 332 333 336
303 303 304 304 304 304 304 305 305 307 307 307 307 312 316 317 316 315 318 319 321 322 324 323 323 323 323 325 326 326 328 329 329 330 331 332 333 332 331 332 331 329 330 332 330 334 336
303 302 302 304 304 304 304 305 305 306 308 307 311 319 317 317 316 316 318 319 320 320 321 321 322 323 324 324 327 326 327 329 329 330 331 331 332 331 331 330 330 330 328 331 332 333 334
302 302 302 304 304 304 304 305 305 305 308 308 314 319 319 318 317 317 319 319 319 321 321 321 321 321 322 324 326 327 327 328 329 329 330 330 330 331 332 330 330 330 331 331 334 340 336
301 301 301 303 304 304 304 304 305 305 306 307 315 317 319 319 319 318 318 319 320 320 321 321 320 321 322 323 325 327 328 328 329 329 330 331 330 331 333 332 331 330 330 331 334 339 340
301 301 302 302 303 304 305 304 304 305 306 307 316 318 317 319 318 319 321 322 321 320 321 321 321 321 321 323 324 325 328 328 328 329 333 332 335 333 332 334 335 333 332 330 333 336 334
299 300 302 301 301 303 304 303 304 305 306 307 317 318 319 321 319 319 320 322 324 322 321 320 321 321 322 323 323 324 327 330 328 327 330 333 341 335 332 334 335 335 334 332 330 333 332
301 301 299 300 300 301 302 303 302 304 307 310 316 317 318 319 320 323 321 320 324 325 322 322 320 322 322 325 325 326 326 329 330 330 332 334 339 337 336 334 333 334 334 332 330 329 331
301 300 299 300 302 302 302 301 301 302 306 312 313 313 315 317 319 321 323 324 322 323 324 321 324 322 322 324 324 325 325 330 331 332 335 337 338 343 338 334 333 336 333 335 332 331 332
299 298 300 301 301 301 301 300 299 300 302 306 310 309 314 316 317 319 321 321 323 324 324 324 322 325 325 327 328 327 327 330 333 334 335 342 345 340 339 338 338 337 338 338 338 333 332
300 300 299 299 299 299 298 297 298 299 299 304 307 308 313 317 317 321 322 322 325 325 323 324 323 323 325 326 328 329 328 330 331 332 334 338 341 339 339 338 336 340 339 336 340 334 335
298 299 299 297 296 296 295 297 299 299 298 303 307 305 309 314 316 318 319 321 325 325 325 323 323 324 324 326 327 331 332 330 329 330 332 333 342 338 341 337 337 337 339 339 339 337 344
294 295 295 296 295 296 297 298 298 298 298 303 305 305 307 310 313 316 317 320 320 322 327 326 325 324 323 324 327 327 328 330 331 331 333 334 337 337 333 336 336 339 340 338 337 345 344
295 295 295 296 297 298 297 298 297 295 298 296 304 305 304 307 309 311 313 314 317 320 325 325 328 326 326 323 324 324 327 329 335 336 338 336 338 335 336 337 337 337 336 336 347 344 346
294 297 298 298 297 295 297 297 297 296 296 295 304 304 303 303 307 308 307 309 310 315 318 322 322 326 326 328 327 329 332 332 338 335 334 338 339 340 343 345 343 346 346 345 344 343 346
Wind_Speed
6 6 6 6 6 6 6 6 7 7 8 8 9 10 11 11 11 12 12 13 12 12 12 11 9 8 6 5 5 3 4 5 9 16 12 12 13 12 13 16 16 13 14 20 10 14 13
6 7 7 7 7 7 7 7 7 7 8 8 9 10 11 12 12 12 13 13 13 12 12 10 8 7 5 9 5 3 7 6 10 13 11 13 10 12 17 17 20 18 16 16 23 13 15
6 7 8 7 7 8 7 8 8 8 9 9 9 10 11 11 12 13 13 13 13 13 13 10 8 8 8 11 4 3 8 8 11 10 10 12 13 13 16 14 21 18 19 14 16 20 19
7 7 7 8 8 8 8 8 9 9 9 10 10 11 11 12 12 13 13 13 13 14 13 9 8 8 8 9 5 10 10 10 10 10 11 9 11 15 19 17 23 13 16 14 18 21 4
7 7 8 8 8 8 8 8 8 9 9 10 10 11 12 12 13 13 13 14 14 14 11 9 2 5 10 6 11 14 14 12 9 9 8 9 9 15 16 14 14 16 16 21 8 37 8
8 8 8 8 8 8 8 8 9 9 9 10 10 11 12 12 13 14 13 14 12 13 9 6 7 7 13 8 10 14 15 13 11 9 8 10 9 12 13 14 13 18 13 6 10 26 13
9 9 8 8 8 8 9 9 10 10 11 11 11 11 12 12 13 14 11 14 10 1 6 14 2 14 4 4 9 14 16 14 13 12 12 14 11 14 17 17 17 21 19 14 22 17 3
10 10 9 9 8 7 8 9 10 12 12 13 13 12 12 12 11 10 6 9 5 8 13 19 23 23 17 10 11 14 18 16 17 13 14 12 14 17 16 16 16 15 16 16 13 9 4
10 9 10 10 10 9 9 9 10 11 13 14 14 14 13 11 10 6 6 8 8 11 9 18 24 22 20 18 19 19 23 23 17 16 16 15 8 15 14 15 14 15 14 15 14 14 6
10 10 10 10 10 11 11 11 12 12 12 13 15 14 13 9 6 4 7 2 8 8 6 11 16 13 18 18 18 23 25 24 13 16 17 15 18 16 7 14 13 14 14 12 14 13 11
9 10 10 11 12 12 12 13 14 14 14 14 14 13 10 9 8 5 4 7 9 5 6 8 18 13 17 18 4 24 26 24 19 17 12 17 13 15 17 12 13 14 13 8 8 13 14
10 11 12 12 12 13 14 15 15 16 17 16 14 14 9 5 10 10 9 8 6 6 9 10 13 12 15 22 15 10 27 22 21 20 18 17 18 11 13 14 13 11 14 6 12 13 13
12 11 11 12 13 14 15 16 17 18 18 18 14 14 12 13 10 4 6 6 6 8 7 9 14 13 18 17 18 13 19 19 18 15 18 18 18 12 11 13 13 11 11 9 10 10 13
15 15 13 13 15 15 16 17 19 19 20 20 15 14 14 16 14 7 6 8 11 9 22 12 2 14 20 20 19 19 16 18 22 23 13 14 14 20 16 15 13 17 14 11 14 9 4
17 17 17 17 15 16 18 19 21 21 19 22 15 7 12 8 15 10 11 12 8 16 16 10 11 14 13 16 17 19 19 19 21 23 19 14 18 10 18 13 14 12 11 16 17 18 5
16 18 17 17 17 18 19 20 22 23 19 20 18 10 16 9 12 13 10 17 16 23 19 14 11 14 16 18 13 13 17 18 20 22 21 20 13 13 9 16 16 16 9 9 10 15 14
16 17 17 18 18 17 18 20 23 24 19 14 11 7 7 18 13 16 13 19 18 29 14 8 11 16 17 19 14 19 18 16 18 20 20 16 13 14 11 11 13 11 14 13 11 11 12
17 16 16 19 19 18 18 19 21 24 18 13 7 7 13 14 13 17 14 21 26 23 16 14 15 18 19 16 13 8 15 16 17 16 17 12 7 12 15 12 11 17 14 16 9 12 12
17 16 15 18 20 20 19 18 18 20 19 21 8 15 10 14 10 13 19 23 25 21 16 13 14 16 16 16 11 11 17 8 5 12 5 13 8 11 13 11 14 17 15 14 12 12 13
17 15 18 16 18 21 22 19 17 16 15 13 7 4 14 15 21 20 17 18 21 25 18 18 16 17 16 14 15 12 15 9 6 9 8 6 9 11 13 8 7 9 12 14 15 11 14
16 12 17 19 16 20 23 22 18 14 10 11 7 7 14 6 12 16 19 19 21 17 14 19 19 19 17 16 15 17 17 17 11 6 8 8 13 14 18 16 10 13 17 16 18 16 12
13 17 17 17 18 19 21 20 20 15 6 6 15 10 18 21 18 15 12 20 19 18 18 19 18 18 15 15 15 14 15 15 14 13 11 13 12 13 18 20 17 13 14 9 13 16 18
14 17 15 14 16 17 21 21 20 17 6 6 14 11 10 13 15 11 12 15 18 19 21 24 15 18 17 16 21 20 22 9 12 14 9 14 12 12 16 18 18 16 8 13 14 13 14
15 17 14 15 15 17 21 23 21 16 12 7 10 9 9 11 11 11 14 20 17 19 19 22 20 11 5 7 11 11 15 12 11 13 6 6 10 11 13 14 17 14 8 14 23 9 13
13 14 16 18 19 21 21 21 18 14 12 6 10 5 8 9 18 13 15 19 16 18 11 15 8 6 7 7 7 8 11 14 15 16 14 8 8 8 12 13 12 8 5 6 17 11 5
12 15 18 19 18 19 18 18 16 14 11 6 7 7 5 10 8 12 21 18 13 9 13 14 18 6 5 7 8 14 12 15 15 19 18 14 9 7 15 14 19 14 14 8 2 6 11
16 18 19 19 17 16 15 15 15 13 10 10 4 11 5 13 16 7 9 8 16 16 8 13 7 9 10 9 12 13 14 18 17 20 15 14 13 15 13 12 15 6 11 7 10 2 11
14 14 14 14 14 14 14 14 15 13 11 6 5 10 4 10 23 16 15 12 10 4 4 11 9 8 7 11 12 11 12 12 12 13 17 15 14 13 12 16 20 2 7 6 9 8 17
12 13 14 14 15 14 13 14 14 13 12 7 2 7 9 10 17 19 22 21 17 9 8 5 10 13 8 6 3 4 7 5 10 6 12 7 6 7 3 3 8 10 15 13 13 14 16
Wind_Direction
343 346 351 353 348 348 351 351 347 345 341 341 336 336 335 335 335 336 335 336 336 339 337 333 329 324 321 281 256 269 216 183 173 170 198 210 227 243 251 260 257 252 268 285 284 286 292
329 328 330 336 333 332 336 332 333 332 332 332 330 330 329 329 329 330 329 330 329 332 330 328 323 316 306 254 274 219 216 180 173 175 205 213 228 236 262 282 289 276 254 263 274 284 283
329 322 322 323 326 324 324 322 323 322 326 330 328 326 326 325 325 325 326 324 322 324 321 319 316 308 275 246 181 191 195 183 179 192 212 222 235 261 251 266 267 271 272 273 269 252 247
325 321 321 321 323 314 320 320 320 320 324 325 324 324 325 326 325 322 322 318 315 316 312 309 304 302 271 200 194 196 188 192 204 213 236 239 236 265 266 274 282 263 271 265 257 276 211
325 320 320 319 319 319 324 319 317 320 318 320 323 324 326 328 326 323 321 315 309 305 301 295 312 309 264 241 206 201 197 197 203 216 230 230 239 244 254 250 263 251 250 243 22 308 277
331 325 320 317 317 320 320 319 318 314 314 316 317 320 324 327 328 327 327 316 302 295 286 264 232 262 231 243 208 194 194 203 202 205 204 224 231 245 234 247 248 261 261 70 91 266 195
358 352 339 328 322 318 318 319 315 312 312 311 314 317 322 325 328 332 342 334 315 344 260 241 191 243 125 188 169 193 193 195 201 212 225 196 218 229 239 230 262 288 304 314 181 231 351
14 12 10 4 355 340 328 318 313 309 307 306 305 307 311 319 324 332 336 328 29 324 297 263 258 249 249 199 195 200 191 195 203 218 219 229 233 247 250 263 273 282 287 286 292 276 231
12 14 13 9 6 2 355 342 324 314 308 303 299 297 298 308 319 334 318 303 318 330 271 281 240 229 216 214 227 195 196 203 202 225 223 229 244 210 242 260 256 267 270 284 276 300 223
16 13 12 11 7 4 359 349 340 330 319 311 304 295 290 287 307 275 289 283 326 324 277 255 193 222 206 206 234 228 196 206 236 228 228 247 241 259 253 244 252 258 253 249 283 292 278
11 14 13 9 5 3 358 351 343 335 326 315 307 301 286 276 271 240 305 309 309 291 282 123 163 149 192 194 155 205 190 208 224 231 237 241 235 240 245 242 236 256 275 309 299 275 274
9 10 11 7 2 359 354 349 344 340 332 321 309 297 286 292 262 243 289 302 294 233 240 189 146 194 192 210 236 179 191 207 228 247 242 249 245 232 243 238 249 250 268 246 272 266 262
8 9 6 358 356 354 349 345 341 338 332 324 310 290 268 235 204 198 265 258 221 236 214 237 177 200 209 207 218 201 197 198 219 222 240 237 242 227 243 257 224 228 255 241 245 233 244
3 359 352 349 346 346 343 340 338 335 332 322 313 282 264 238 225 275 257 228 235 248 241 303 279 202 207 217 196 204 204 217 218 233 243 220 233 218 210 229 246 207 240 242 245 229 326
353 354 350 346 342 340 339 337 338 337 334 322 320 288 274 226 218 211 227 220 224 240 285 265 224 247 258 241 251 198 205 219 218 221 243 258 249 214 210 192 240 244 214 252 272 284 225
351 351 349 346 340 340 339 337 337 339 338 327 323 294 240 218 202 195 227 241 238 255 293 295 266 256 240 248 218 240 206 217 228 218 224 257 274 281 204 193 204 249 226 231 240 265 278
347 348 353 350 343 337 337 338 340 339 342 333 324 262 144 170 178 209 223 233 242 262 298 272 276 262 267 264 230 217 241 228 216 224 226 223 255 274 244 204 237 206 243 253 256 239 251
350 351 352 357 358 346 340 339 342 341 350 342 288 247 176 179 198 224 232 237 258 266 242 231 264 281 285 278 281 264 258 245 224 209 218 216 233 243 262 190 229 260 227 230 244 246 267
353 351 350 351 355 351 345 343 346 346 348 349 292 259 202 201 232 231 235 247 249 253 255 250 233 256 264 277 282 258 262 296 357 186 274 205 214 250 255 243 194 218 235 219 227 273 282
351 355 353 344 349 351 349 349 347 344 332 336 287 247 225 209 242 260 263 252 234 242 252 235 252 236 258 246 255 261 264 262 174 257 28 347 275 223 243 247 9 226 242 253 249 229 244
342 345 348 346 338 344 347 350 352 343 319 322 248 265 345 243 223 233 255 267 273 229 205 246 260 247 231 244 243 236 251 275 175 201 254 253 261 260 247 279 265 273 241 217 247 240 257
357 347 339 347 355 347 341 349 353 352 320 286 310 344 334 302 309 296 271 242 256 273 223 225 236 255 236 251 240 244 238 258 277 185 212 248 245 261 271 278 265 225 258 274 225 244 248
346 345 353 354 352 344 339 348 354 360 10 329 340 316 301 293 287 272 276 269 240 261 274 240 215 236 245 240 250 252 257 294 277 271 212 218 244 240 255 253 265 271 257 282 254 263 279
332 335 337 338 333 331 333 340 346 356 1 3 318 319 285 277 264 267 306 273 260 241 251 265 240 237 290 359 306 274 274 277 260 272 271 292 252 259 254 264 261 255 7 359 311 264 255
333 333 327 325 327 326 328 333 338 346 358 15 332 337 307 288 299 323 331 329 305 296 227 264 268 287 2 295 276 240 254 257 259 257 243 170 274 274 251 258 265 167 155 165 299 263 324
307 316 322 328 330 330 333 335 340 339 350 9 321 320 296 297 265 331 328 316 308 333 255 235 254 308 317 270 230 240 232 231 222 232 247 236 219 226 262 247 252 268 113 141 346 272 42
311 310 312 321 330 332 339 340 339 336 346 3 321 316 303 290 275 315 329 308 323 333 309 323 279 219 225 233 245 234 236 246 225 208 213 224 235 228 240 256 268 55 118 151 209 92 44
325 327 330 330 334 334 336 336 338 338 337 351 276 304 317 285 278 278 294 293 298 354 359 322 288 210 209 221 236 237 244 245 249 259 210 207 213 226 246 238 245 116 166 236 95 101 85
332 338 332 322 319 322 329 332 332 334 333 349 337 305 301 272 262 282 285 273 258 259 273 318 322 318 310 341 307 302 312 350 354 251 183 240 321 288 4 356 39 70 93 117 120 114 105